Tracking 35274 objects as of 12-Sep-2026
HD Live streaming from Space Station
objects crossing your sky now

COSMOS 1813 DEB


COSMOS 1813 DEB is no longer on orbit


NORAD ID: 17521
Int'l Code: 1987-004BK
Launch date: January 15, 1987
Source: Commonwealth of Independent States (former USSR) (CIS)
Launch site: PLESETSK MISSILE AND SPACE COMPLEX (PKMTR)
Decay date: 1988-07-12

Note: This is SATELLITE DEBRIS
Your satellite tracking list
Your tracking list is empty




NASA's NSSDC Master Catalog

Two Line Element Set (TLE):
1 17521U 87004 BK 88194.22265023  .10242863 +95000-5 +91907-4 0  9992
2 17521 072.7669 033.9652 0009125 270.0867 088.2692 16.51397678001885
Source of the keplerian elements: AFSPC